Location: Madingley
(52.2167°N, 0.0500°E)
Time: 21:19:05
(UTC+00:00)

Cosmos 2278 - Pass Details

Date: 15 May 2026
Orbit: 837 x 852 km, 71.1° (Epoch: 10 June)

Event Time Altitude Azimuth Distance (km) Brightness Sun altitude
Rises 20:59:06 0° 328° (NNW) 3,432 8.9 -9.0°
Reaches altitude 10° 21:01:34 10° 328° (NNW) 2,492 7.7 -9.3°
Maximum altitude 21:07:18 81° 242° (WSW) 870 3.8 -9.9°
Enters shadow 21:12:34 12° 156° (SSE) 2,315 5.4 -10.4°
